Location: Bauersach School (historical)
(38.0926°N, 89.4806°W)
Time: 04:14:55
(UTC+00:00)

Cosmos 372 Rocket - Pass Details

Date: 11 December 2025
Orbit: 734 x 762 km, 74.1° (Epoch: 21 January)

Event Time Altitude Azimuth Distance (km) Brightness Sun altitude
Rises 23:30:26 0° 180° (S) 3,191 7.5 -10.1°
Reaches altitude 10° 23:32:52 10° 173° (S) 2,267 6.6 -10.5°
Maximum altitude 23:37:44 44° 103° (ESE) 1,030 4.3 -11.4°
Drops below altitude 10° 23:42:34 10° 32° (NNE) 2,264 6.0 -12.3°
Enters shadow 23:42:38 10° 32° (NNE) 2,288 6.0 -12.3°
